Location: Malanoce
(44.2500°N, 7.4667°E)
Time: 05:52:36
(UTC+00:00)

Helios 1A Rocket - Pass Details

Date: 17 November 2025
Orbit: 439 x 451 km, 98.3° (Epoch: 09 December)

Event Time Altitude Azimuth Distance (km) Brightness Sun altitude
Exits shadow 17:50:13 70° 72° (ENE) 479 2.2 -19.4°
Maximum altitude 17:50:23 73° 102° (ESE) 472 2.2 -19.4°
Drops below altitude 10° 17:53:45 10° 188° (S) 1,570 5.3 -20.0°
Sets 17:55:46 0° 191° (S) 2,440 6.4 -20.4°
